QPF
0.00 0.00 0.00 0.00 0.00 0.00 0.00 0.00 0.00 0.00 0.00 0.00 0.00 0.00 0.00 0.00 0.00 0.00 0.00 0.00 0.00 0.00 0.00 0.00 0.00 0.00 0.00 0.00 0.00 0.00 0.00 0.00
0.00 0.00 0.00 0.00 0.00 0.00 0.00 0.00 0.00 0.00 0.00 0.00 0.00 0.00 0.00 0.00 0.00 0.00 0.00 0.00 0.00 0.00 0.00 0.00 0.00 0.00 0.00 0.00 0.00 0.00 0.00 0.00
0.00 0.00 0.00 0.00 0.00 0.00 0.00 0.00 0.00 0.00 0.00 0.01 0.02 0.01 0.00 0.00 0.00 0.00 0.00 0.00 0.00 0.00 0.00 0.00 0.00 0.00 0.00 0.00 0.00 0.00 0.00 0.00
0.00 0.00 0.00 0.00 0.00 0.00 0.00 0.00 0.00 0.00 0.00 0.00 0.03 0.03 0.01 0.00 0.00 0.00 0.00 0.00 0.00 0.00 0.00 0.00 0.00 0.00 0.00 0.00 0.00 0.00 0.00 0.00
0.00 0.00 0.00 0.00 0.00 0.00 0.00 0.00 0.00 0.00 0.00 0.00 0.01 0.01 0.00 0.00 0.00 0.00 0.00 0.00 0.00 0.00 0.00 0.00 0.00 0.00 0.00 0.00 0.00 0.00 0.00 0.00
0.00 0.00 0.00 0.00 0.00 0.00 0.00 0.00 0.00 0.00 0.00 0.00 0.00 0.00 0.02 0.01 0.00 0.00 0.00 0.00 0.00 0.00 0.00 0.00 0.00 0.00 0.00 0.00 0.00 0.00 0.00 0.00
0.00 0.00 0.00 0.00 0.00 0.00 0.00 0.00 0.00 0.00 0.00 0.00 0.00 0.01 0.02 0.02 0.02 0.01 0.00 0.00 0.00 0.00 0.00 0.00 0.00 0.00 0.00 0.00 0.00 0.00 0.00 0.00
0.00 0.00 0.00 0.00 0.00 0.00 0.00 0.00 0.00 0.02 0.02 0.01 0.00 0.08 0.08 0.05 0.01 0.01 0.00 0.00 0.00 0.00 0.00 0.00 0.00 0.00 0.00 0.00 0.00 0.00 0.00 0.00
0.00 0.00 0.00 0.00 0.00 0.00 0.00 0.01 0.01 0.04 0.06 0.09 0.04 0.02 0.05 0.02 0.02 0.05 0.03 0.00 0.00 0.00 0.00 0.00 0.00 0.00 0.00 0.00 0.02 0.00 0.00 0.00
0.00 0.00 0.00 0.00 0.05 0.12 0.12 0.16 0.17 0.11 0.15 0.20 0.17 0.16 0.14 0.04 0.03 0.04 0.05 0.01 0.00 0.00 0.00 0.01 0.00 0.00 0.01 0.01 0.01 0.00 0.00 0.00
0.00 0.00 0.00 0.02 0.09 0.14 0.11 0.19 0.19 0.24 0.30 0.34 0.26 0.21 0.16 0.10 0.07 0.06 0.06 0.02 0.00 0.00 0.00 0.01 0.00 0.00 0.00 0.00 0.00 0.00 0.00 0.00
0.00 0.00 0.00 0.09 0.14 0.12 0.11 0.10 0.11 0.16 0.31 0.35 0.27 0.19 0.17 0.09 0.05 0.05 0.04 0.02 0.01 0.00 0.00 0.01 0.00 0.00 0.00 0.00 0.00 0.00 0.00 0.00
0.00 0.00 0.02 0.16 0.11 0.07 0.05 0.04 0.06 0.18 0.19 0.30 0.24 0.12 0.09 0.06 0.02 0.04 0.03 0.01 0.01 0.00 0.00 0.00 0.00 0.00 0.00 0.00 0.00 0.00 0.00 0.00
0.00 0.03 0.10 0.16 0.10 0.07 0.02 0.01 0.04 0.16 0.31 0.37 0.32 0.31 0.22 0.11 0.02 0.01 0.03 0.03 0.02 0.00 0.00 0.00 0.00 0.00 0.00 0.00 0.00 0.00 0.00 0.00
0.01 0.07 0.10 0.08 0.06 0.02 0.02 0.02 0.04 0.09 0.15 0.26 0.29 0.20 0.16 0.17 0.12 0.05 0.02 0.02 0.02 0.01 0.01 0.01 0.01 0.00 0.00 0.00 0.00 0.00 0.00 0.00
0.00 0.03 0.06 0.06 0.07 0.06 0.02 0.00 0.01 0.04 0.07 0.13 0.12 0.12 0.14 0.11 0.11 0.09 0.05 0.03 0.02 0.01 0.00 0.00 0.00 0.00 0.00 0.00 0.00 0.00 0.00 0.00
0.00 0.00 0.00 0.02 0.09 0.10 0.07 0.04 0.01 0.02 0.03 0.04 0.08 0.10 0.12 0.12 0.09 0.08 0.06 0.03 0.03 0.01 0.00 0.00 0.01 0.01 0.00 0.00 0.00 0.00 0.00 0.00
0.00 0.00 0.00 0.00 0.03 0.11 0.17 0.16 0.08 0.01 0.00 0.00 0.01 0.04 0.08 0.12 0.10 0.06 0.07 0.05 0.02 0.01 0.01 0.00 0.00 0.00 0.00 0.00 0.00 0.00 0.00 0.00
0.00 0.00 0.00 0.00 0.00 0.00 0.05 0.11 0.09 0.04 0.01 0.00 0.00 0.00 0.01 0.04 0.11 0.10 0.08 0.06 0.03 0.03 0.01 0.01 0.01 0.00 0.01 0.00 0.00 0.00 0.00 0.00
0.00 0.00 0.00 0.00 0.00 0.00 0.00 0.00 0.01 0.02 0.02 0.01 0.00 0.00 0.00 0.00 0.00 0.02 0.03 0.06 0.05 0.04 0.02 0.01 0.01 0.01 0.00 0.00 0.00 0.00 0.00 0.00
MSLP
1008.58 1008.92 1009.37 1009.70 1009.88 1010.14 1010.51 1010.89 1011.45 1012.16 1012.66 1012.94 1012.89 1013.30 1013.94 1014.28 1014.50 1015.09 1015.58 1016.37 1017.00 1017.11 1017.33 1017.48 1017.10 1017.14 1017.73 1018.12 1018.48 1018.80 1019.13 1019.72
1008.56 1008.81 1009.25 1009.51 1009.75 1010.23 1010.58 1010.86 1011.38 1011.72 1012.46 1013.16 1013.46 1013.57 1013.93 1014.36 1014.70 1015.08 1015.57 1016.09 1016.74 1016.85 1017.69 1017.86 1017.53 1017.35 1017.74 1018.40 1018.92 1019.24 1019.64 1020.04
1008.48 1008.88 1009.21 1009.55 1009.92 1010.30 1010.79 1011.22 1011.56 1011.94 1012.59 1012.76 1013.66 1014.03 1014.20 1014.42 1014.92 1015.43 1015.75 1016.16 1016.64 1017.10 1017.45 1017.61 1017.79 1017.96 1018.21 1018.41 1019.00 1019.68 1019.87 1020.16
1007.93 1008.48 1009.03 1009.52 1009.76 1010.08 1010.53 1010.86 1011.17 1011.74 1012.24 1012.98 1013.25 1014.11 1014.35 1014.44 1014.84 1015.29 1015.57 1016.54 1016.99 1017.35 1017.75 1017.81 1017.77 1018.23 1018.63 1019.10 1019.50 1019.78 1019.94 1020.42
1007.39 1007.87 1008.50 1009.15 1009.67 1010.00 1010.28 1010.54 1010.86 1011.11 1011.69 1012.27 1013.26 1013.75 1014.34 1014.71 1014.82 1015.51 1016.04 1016.24 1016.96 1017.60 1018.06 1018.23 1018.29 1018.58 1019.00 1019.53 1020.07 1020.32 1020.46 1020.71
1007.00 1007.48 1007.84 1008.36 1008.87 1009.59 1010.02 1010.43 1010.65 1010.96 1011.60 1012.28 1012.58 1013.53 1014.16 1014.49 1014.77 1015.42 1016.19 1016.51 1016.95 1017.28 1018.16 1018.63 1018.77 1018.80 1019.00 1019.68 1020.44 1020.89 1020.98 1021.38
1006.15 1006.80 1007.20 1007.54 1008.17 1009.14 1009.60 1010.12 1010.57 1010.95 1011.37 1011.75 1012.26 1013.03 1013.85 1014.45 1014.56 1015.04 1015.70 1016.45 1017.05 1017.40 1018.00 1018.45 1019.20 1019.54 1019.79 1019.87 1020.66 1021.21 1021.52 1021.74
1005.96 1006.37 1006.89 1007.37 1007.57 1008.11 1008.83 1009.22 1009.70 1010.42 1010.96 1011.31 1011.86 1012.29 1012.92 1013.80 1014.37 1014.59 1015.31 1015.89 1016.78 1017.22 1017.73 1018.51 1019.16 1019.96 1020.51 1020.73 1021.06 1021.52 1022.34 1022.44
1004.96 1005.38 1006.13 1006.82 1007.14 1007.52 1007.92 1008.71 1009.46 1010.09 1010.17 1010.67 1011.21 1011.79 1012.49 1013.09 1013.81 1014.37 1014.74 1015.63 1016.46 1017.31 1017.87 1018.41 1019.22 1020.10 1020.96 1021.33 1021.58 1022.07 1022.66 1023.10
1003.75 1004.45 1004.93 1005.58 1006.23 1007.03 1007.62 1008.04 1008.94 1009.14 1009.63 1009.71 1010.65 1011.06 1011.92 1012.51 1013.44 1013.98 1014.75 1015.41 1016.19 1017.20 1017.77 1018.51 1019.31 1020.17 1021.10 1021.56 1022.01 1022.42 1023.18 1023.44
1002.90 1003.79 1004.38 1005.01 1005.95 1006.88 1007.00 1007.45 1008.06 1008.52 1008.80 1008.40 1009.82 1010.41 1011.37 1011.84 1012.84 1013.64 1014.36 1014.85 1015.64 1016.81 1017.90 1018.04 1019.08 1020.24 1021.15 1021.69 1022.03 1022.48 1023.38 1023.98
1002.29 1002.85 1003.75 1004.81 1005.74 1006.64 1006.91 1007.34 1007.40 1008.24 1009.23 1008.89 1008.91 1009.64 1010.26 1011.13 1012.10 1013.09 1013.89 1014.60 1015.41 1016.44 1017.46 1018.31 1018.90 1019.91 1021.39 1022.19 1022.67 1023.13 1023.65 1024.27
1002.19 1002.81 1003.72 1004.83 1006.03 1006.67 1007.12 1006.88 1007.59 1007.78 1008.45 1008.61 1008.75 1009.21 1009.52 1010.60 1011.15 1012.52 1013.57 1013.83 1014.73 1015.83 1016.76 1017.94 1019.12 1019.98 1021.03 1022.95 1023.67 1024.00 1024.06 1024.48
1003.72 1004.14 1003.88 1004.72 1005.42 1006.39 1006.80 1006.62 1007.10 1007.68 1008.06 1008.57 1008.26 1008.97 1008.82 1009.45 1009.99 1011.61 1012.80 1014.09 1014.51 1015.61 1016.14 1017.77 1019.24 1019.17 1020.49 1022.09 1024.04 1025.00 1024.78 1024.88
1005.10 1005.24 1005.55 1005.59 1005.61 1006.13 1006.79 1007.24 1007.09 1007.59 1007.80 1008.10 1008.50 1008.70 1009.15 1008.89 1009.69 1010.51 1012.02 1013.04 1013.86 1014.69 1015.66 1016.23 1017.86 1018.82 1019.39 1020.15 1023.13 1023.95 1024.61 1025.38
1005.52 1005.37 1006.00 1006.32 1006.69 1006.63 1006.34 1006.35 1006.89 1007.14 1007.45 1007.41 1008.34 1008.66 1008.42 1009.05 1008.78 1010.19 1011.04 1011.74 1013.15 1013.66 1014.61 1015.54 1016.57 1017.54 1019.35 1019.33 1019.82 1020.97 1023.23 1025.06
1006.16 1006.39 1006.17 1006.36 1006.73 1006.83 1007.00 1006.97 1006.62 1007.39 1007.73 1007.36 1007.80 1008.36 1008.52 1009.49 1008.88 1010.27 1010.63 1011.06 1011.84 1012.48 1013.65 1014.60 1015.53 1016.60 1017.72 1018.91 1019.75 1020.52 1021.31 1022.35
1006.49 1006.46 1006.14 1006.14 1006.28 1006.73 1007.09 1007.20 1007.19 1007.16 1007.28 1007.31 1007.45 1007.82 1008.58 1009.10 1009.74 1010.30 1009.48 1009.99 1010.92 1011.48 1012.49 1013.54 1014.50 1015.66 1016.65 1017.59 1018.59 1019.65 1020.64 1021.36
1006.60 1006.62 1006.33 1005.91 1005.87 1006.05 1006.59 1006.37 1006.55 1006.92 1006.07 1006.75 1007.17 1007.40 1007.84 1008.10 1008.60 1009.29 1009.22 1009.61 1010.49 1010.27 1011.72 1012.31 1013.68 1014.56 1015.74 1016.83 1017.73 1018.72 1019.72 1020.50
1006.77 1007.38 1006.58 1005.82 1005.83 1005.76 1005.97 1005.79 1005.58 1005.46 1005.80 1006.25 1006.50 1006.77 1006.93 1007.42 1008.03 1008.69 1009.13 1009.34 1010.23 1011.27 1010.42 1011.35 1012.56 1013.94 1015.02 1016.01 1017.17 1018.10 1018.98 1019.63
Thickness
5763 5759 5755 5751 5749 5747 5742 5738 5731 5723 5717 5713 5715 5712 5706 5704 5703 5697 5693 5684 5678 5676 5671 5671 5675 5676 5672 5670 5667 5662 5657 5652
5760 5756 5751 5748 5745 5739 5735 5733 5727 5722 5713 5705 5702 5702 5699 5696 5694 5691 5687 5681 5675 5674 5664 5663 5666 5670 5669 5662 5658 5655 5651 5647
5754 5749 5743 5740 5735 5730 5725 5720 5717 5714 5707 5705 5695 5691 5690 5688 5684 5681 5679 5676 5671 5666 5663 5662 5659 5660 5659 5658 5653 5647 5646 5643
5752 5746 5738 5731 5727 5723 5718 5715 5713 5707 5703 5696 5694 5684 5683 5681 5678 5674 5672 5664 5663 5658 5656 5656 5657 5655 5651 5647 5645 5643 5641 5637
5749 5744 5735 5727 5719 5714 5711 5709 5706 5705 5699 5695 5685 5681 5676 5672 5671 5665 5661 5660 5655 5650 5648 5648 5649 5648 5646 5642 5636 5632 5632 5630
5741 5737 5732 5724 5715 5708 5703 5700 5698 5695 5689 5683 5682 5674 5670 5667 5664 5659 5653 5652 5650 5647 5641 5638 5638 5641 5642 5636 5629 5623 5623 5620
5735 5728 5723 5719 5712 5701 5697 5691 5686 5683 5679 5676 5673 5669 5664 5657 5658 5654 5650 5645 5641 5639 5635 5633 5628 5627 5628 5628 5623 5616 5614 5612
5727 5721 5716 5709 5705 5698 5691 5686 5681 5675 5670 5667 5664 5663 5660 5653 5650 5649 5644 5642 5635 5632 5630 5626 5621 5616 5614 5614 5614 5609 5602 5603
5725 5721 5713 5705 5699 5694 5687 5678 5671 5664 5662 5659 5656 5654 5650 5647 5645 5642 5639 5633 5629 5623 5621 5619 5614 5607 5604 5602 5603 5598 5593 5592
5724 5715 5708 5700 5693 5683 5675 5671 5662 5653 5651 5653 5647 5646 5641 5637 5635 5635 5628 5625 5621 5615 5614 5611 5607 5601 5594 5594 5591 5589 5583 5582
5721 5709 5702 5695 5683 5671 5669 5665 5659 5653 5645 5650 5641 5639 5633 5628 5622 5625 5620 5617 5615 5609 5604 5607 5601 5593 5587 5585 5584 5582 5576 5571
5712 5704 5694 5681 5670 5662 5658 5653 5653 5643 5632 5635 5636 5634 5632 5622 5617 5617 5613 5611 5608 5602 5598 5596 5594 5587 5576 5571 5569 5567 5566 5561
5697 5691 5682 5668 5656 5649 5645 5646 5638 5637 5630 5626 5626 5627 5623 5616 5617 5610 5606 5608 5604 5597 5594 5588 5582 5579 5569 5555 5553 5552 5554 5552
5673 5666 5668 5659 5651 5643 5639 5639 5633 5627 5623 5618 5621 5618 5624 5619 5615 5607 5602 5594 5594 5590 5590 5579 5571 5576 5567 5556 5543 5538 5541 5542
5649 5643 5641 5641 5640 5634 5627 5622 5624 5619 5616 5613 5609 5609 5606 5600 5601 5601 5596 5592 5590 5586 5581 5582 5571 5568 5565 5559 5534 5535 5534 5530
5634 5633 5626 5624 5620 5618 5620 5622 5614 5610 5608 5609 5601 5601 5585 5595 5596 5594 5591 5591 5583 5582 5578 5576 5571 5569 5555 5557 5557 5552 5533 5526
5613 5611 5612 5609 5605 5604 5602 5603 5605 5595 5592 5596 5595 5588 5584 5583 5588 5581 5583 5582 5582 5581 5575 5573 5571 5564 5558 5548 5547 5548 5544 5540
5593 5593 5595 5594 5594 5589 5588 5585 5586 5589 5586 5587 5588 5582 5574 5567 5569 5569 5566 5578 5576 5578 5574 5569 5567 5561 5555 5550 5547 5545 5539 5534
5572 5573 5576 5578 5580 5579 5575 5578 5574 5575 5572 5578 5575 5576 5571 5568 5568 5562 5558 5568 5567 5577 5569 5566 5560 5559 5552 5545 5542 5540 5536 5531
5551 5542 5550 5558 5562 5564 5561 5564 5568 5568 5567 5566 5568 5565 5567 5563 5559 5557 5555 5556 5547 5541 5564 5563 5557 5550 5546 5541 5536 5531 5529 5527